Volver al catálogo

BEIYOU-3

ActivoCienciaSSO
NORAD 64053·PAYLOAD·🇨🇳 China
Este nombre de satélite aún no ha sido confirmado por fuentes oficiales.

Lanzado May 17, 2025 desde Jiuquan Satellite Launch Center

Loading…

Próximos Pases (próximas 24 horas)

TLE

ActualizadoSource: Space-Track

Época: Sep 14, 2026, 12:51 UTC

1 64053U 25103F   26257.53582269  .00002847  00000-0  13711-3 0  9998
2 64053  97.3729 326.9562 0002572 183.3876 176.7342 15.19540791 73611

Sigue BEIYOU-3 en tiempo real con AllMySat

Download on the App Store